Regional Weather Roundup
Issued by NWS

Home | Current Version | Previous Version | Text Only | Print | Product List | Glossary On
Versions: 1 2 3 4 5 6 7 8 9 10 11 12 13 14 15 16 17 18 19 20 21 22 23 24 25 26 27 28 29 30 31 32 33 34 35 36 37 38 39 40 41 42 43 44 45 46 47 48 49 50
000
ASUS43 KLMK 260110
RWRKY
KENTUCKY REGIONAL WEATHER ROUNDUP
NATIONAL WEATHER SERVICE LOUISVILLE KY
900 PM EDT SUN JUN 25 2017

NOTE "FAIR" INDICATES FEW OR NO CLOUDS BELOW 12,000 FEET
WITH NO SIGNIFICANT WEATHER AND/OR OBSTRUCTIONS TO VISIBILITY.

KYZ001>023-026-027-061>063-070>075-260200-
WESTERN AND SOUTH CENTRAL KENTUCKY

CITY           SKY/WX    TMP DP  RH WIND       PRES   REMARKS
PADUCAH        CLEAR     76  55  48 CALM      30.14S
HENDERSON      CLEAR     74  55  51 CALM      30.14S
OWENSBORO      CLEAR     75  50  41 NW6       30.14R
HOPKINSVILLE   CLEAR     76  56  51 SW7       30.15S
BOWLING GREEN  CLEAR     75  53  46 W5        30.15S
GLASGOW        CLEAR     70  56  61 CALM      30.16S
$$

KYZ024-025-028>034-038-045-046-053-260200-
NORTH CENTRAL KENTUCKY

CITY           SKY/WX    TMP DP  RH WIND       PRES   REMARKS
LOUISVILLE/SDF PTCLDY    75  46  35 W10       30.13R
LOUISVILLE/LOU CLEAR     76  47  35 NW9       30.13R
FORT KNOX      CLEAR     71  47  41 W5        30.12S
$$

KYZ035>037-039>044-047>052-055>060-089>105-260200-
NORTHEAST KENTUCKY

CITY           SKY/WX    TMP DP  RH WIND       PRES   REMARKS
LEXINGTON      CLEAR     71  50  47 W7        30.14R
COVINGTON      PTCLDY    70  50  49 NW8       30.12R
FRANKFORT      CLEAR     73  44  35 W6        30.12R
$$

KYZ054-064>069-076>088-106>120-260200-
SOUTHEAST KENTUCKY

CITY           SKY/WX    TMP DP  RH WIND       PRES   REMARKS
JACKSON        CLEAR     69  52  54 CALM      30.16R
LONDON         CLEAR     73  48  41 SW5       30.17R
SOMERSET       CLEAR     70  50  49 W3        30.18R
MIDDLESBORO    CLEAR     67  53  60 W3        30.19R
MONTICELLO     CLEAR     67  59  75 W10       30.19R
$$





USA.gov is the U.S. government's official web portal to all federal, state and local government web resources and services.